Tracking 35331 objects as of 16-Sep-2026
HD Live streaming from Space Station
objects crossing your sky now

JILIN-01 GAOFEN 3D 29


JILIN-01 GAOFEN 3D 29 is no longer on orbit


NORAD ID: 52446
Int'l Code: 2022-048D
Launch date: May 5, 2022
Source: People's Republic of China (PRC)
Launch site: Taiyaun Space Center, China (TSC)
Decay date: 2026-09-01
Your satellite tracking list
Your tracking list is empty




NASA's NSSDC Master Catalog

Two Line Element Set (TLE):
1 52446U 22048D   26244.21630185  .07932232  26489-5  51360-3 0  9991
2 52446  97.5613   7.2672 0012239 273.8210  86.1690 16.40520656241583
Source of the keplerian elements: AFSPC